Location: Unspecified
(0.0000°N, 0.0000°E)
Time: 23:49:09
(UTC+00:00)

Courier 1B - Visible Passes

Search period start: 31 August 2015 00:00
Search period end: 10 September 2015 00:00
Orbit: 963 x 1209 km, 28.3° (Epoch: 31 August)

Date Brightness Start Highest point End Pass type
(mag) Time Alt. Az. Time Alt. Az. Time Alt. Az.
04 Sep 9.6 20:10:04 10° SSW 20:11:32 14° S 20:11:32 14° S visible
05 Sep 9.2 19:17:06 10° SSW 19:20:49 15° SSE 19:21:27 15° SSE visible
06 Sep 9.5 18:24:33 10° S 18:26:42 12° SSE 18:29:04 10° SE visible
06 Sep 9.1 20:15:32 10° SW 20:18:20 23° SSW 20:18:20 23° SSW visible
07 Sep 8.5 19:22:09 10° SSW 19:27:48 28° SSE 19:28:21 27° SE visible
08 Sep 9.0 18:28:51 10° SSW 18:33:50 21° SSE 18:38:25 11° ESE visible
08 Sep 8.7 20:21:34 10° SW 20:25:21 35° SW 20:25:21 35° SW visible
09 Sep 7.7 19:27:52 10° SW 19:34:34 50° SSE 19:35:28 47° SE visible
09 Sep 10.3 21:22:20 10° W 21:22:24 10° W 21:22:24 10° W visible
